This is the latest recevied weather packets stored in our database for station/object M0VEM-7. If no packets are shown the sender has not sent any weather packets the latest 10 day(s).
| Time | Temp. | Humidity | Pressure | Rain* | Wind** | Luminosity | Snow |
|---|---|---|---|---|---|---|---|
| 1787919482 | 27.22° C | 60% | 1005.8 hPa | - | - | - | - |
| 1787918282 | 26.67° C | 61% | 1006 hPa | - | - | - | - |
| 1787917081 | 26.67° C | 63% | 1006 hPa | - | - | - | - |
| 1787916480 | 26.11° C | 63% | 1006 hPa | - | - | - | - |
| 1787915280 | 25° C | 63% | 1006.1 hPa | - | - | - | - |
| 1787914680 | 25° C | 63% | 1006.4 hPa | - | - | - | - |
| 1787914080 | 24.44° C | 64% | 1006.2 hPa | - | - | - | - |
| 1787913479 | 24.44° C | 65% | 1006.2 hPa | - | - | - | - |
| 1787912879 | 23.89° C | 65% | 1006.4 hPa | - | - | - | - |
| 1787912279 | 23.89° C | 66% | 1006.2 hPa | - | - | - | - |
| 1787911679 | 23.33° C | 66% | 1006.4 hPa | - | - | - | - |
| 1787911078 | 23.33° C | 66% | 1006.5 hPa | - | - | - | - |
| 1787910477 | 22.78° C | 67% | 1006.4 hPa | - | - | - | - |
| 1787909877 | 22.22° C | 68% | 1006.3 hPa | - | - | - | - |
| 1787909277 | 22.22° C | 68% | 1006.1 hPa | - | - | - | - |
| 1787908676 | 21.67° C | 69% | 1006.3 hPa | - | - | - | - |
| 1787908076 | 21.11° C | 69% | 1006.5 hPa | - | - | - | - |
| 1787907476 | 21.11° C | 69% | 1006.5 hPa | - | - | - | - |
| 1787906276 | 20.56° C | 70% | 1006.4 hPa | - | - | - | - |
| 1787905676 | 20° C | 71% | 1006.6 hPa | - | - | - | - |
| 1787905075 | 20° C | 71% | 1006.6 hPa | - | - | - | - |
| 1787904476 | 19.44° C | 71% | 1006.5 hPa | - | - | - | - |
| 1787903874 | 19.44° C | 70% | 1006.5 hPa | - | - | - | - |
| 1787903274 | 18.89° C | 70% | 1006.6 hPa | - | - | - | - |
| 1787902673 | 18.89° C | 70% | 1006.3 hPa | - | - | - | - |
* Rain since midnight (hover to see other rain measurements)
** Current wind speed in m/s (hover to see current wind gust speed)